sat.trackr.live / text

‹ back to catalog

SPAINSAT

NORAD 28945 · 2006-007A

PAYLOAD ACTIVE UNKNOWN

§ Identity

Operator
Country
SPN
Launch date
2006-03-11
Launch site
FRGUI
Launch vehicle
Mass (kg)
RCS (m²)
26.70

Purposes: comms

External: N2YO · Heavens-Above · Gunter

§ Orbital elements

Epoch: 2026-09-19T02:08:46.326048Z

Period
1,436.09 min
Inclination
0.7990°
Eccentricity
0.0004850
Mean motion
1.00272082 rev/d
Perigee alt
35,766.1 km
Apogee alt
35,807.0 km
Semi-major
42,164.6 km
B*
0.0000e+0
RAAN
84.8419°
Arg perigee
95.9571°
Mean anomaly
179.2116°
Rev number
7,515

§ Raw data

SPAINSAT1 28945U 06007A   26262.08942507 -.00000221  00000+0  00000+0 0  99982 28945   0.7990  84.8419 0004850  95.9571 179.2116  1.00272082 75159

JSON: /api/v1/satellites/28945 · /tle

For live sub-satellite position, see the globe view (requires WebGL).

§ Visibility from observer

Set your observer location to see the next 7 days of passes ≥ 10°. The values pass through the URL so the page stays shareable.

No JS? Fill the form by hand. The geolocation button needs JavaScript.